Voltar ao catálogo

STARLINK-32145

AtivoComunicaçõesVLEO
NORAD 60154·PAYLOAD·🇺🇸 United States

Lançado Jun 27, 2024 de Cape Canaveral Space Force Station

Loading…

Próximas Passagens (próximas 24 horas)

TLE

AtualizadoSource: CelesTrak SupGP

Época: Sep 14, 2026, 22:36 UTC

1 60154C 24120V   26257.94215278 -.00048805  00000+0 -14419-2 0  2579
2 60154  53.1570 157.4193 0001310  98.6643 136.6024 15.34415475    12

Acompanhe STARLINK-32145 em tempo real com AllMySat

Download on the App Store